Time,TemperatureF,DewpointF,PressureIn,WindDirection,WindDirectionDegrees,WindSpeedMPH,WindSpeedGustMPH,Humidity,HourlyPrecipIn,Conditions,Clouds,dailyrainin,SoftwareType,DateUTC
2013-05-10 00:01:00,63.0,55.2,29.88,East,90,0.0,0.0,76,0.00,,,0.00,meteohub,2013-05-10 04:01:00,
2013-05-10 00:02:00,63.0,55.2,29.88,East,90,0.0,0.0,76,0.00,,,0.00,meteohub,2013-05-10 04:02:00,
2013-05-10 00:07:00,63.0,55.9,29.88,SW,225,0.0,0.0,78,0.00,,,0.00,meteohub,2013-05-10 04:07:00,
2013-05-10 00:13:00,63.0,56.7,29.88,SW,225,0.0,0.0,80,0.00,,,0.00,meteohub,2013-05-10 04:13:00,
2013-05-10 00:18:00,63.1,56.8,29.88,South,180,0.0,0.0,80,0.00,,,0.00,meteohub,2013-05-10 04:18:00,
2013-05-10 00:23:00,63.3,56.7,29.88,East,90,0.0,0.0,79,0.00,,,0.00,meteohub,2013-05-10 04:23:00,
2013-05-10 00:28:00,63.5,57.2,29.88,SW,225,0.0,0.0,80,0.00,,,0.00,meteohub,2013-05-10 04:28:00,
2013-05-10 00:33:00,63.5,57.6,29.88,North,0,0.0,0.0,81,0.00,,,0.00,meteohub,2013-05-10 04:33:00,
2013-05-10 00:38:00,63.3,57.4,29.89,SW,225,0.0,0.0,81,0.00,,,0.00,meteohub,2013-05-10 04:38:00,
2013-05-10 00:43:00,63.3,57.4,29.89,SW,225,0.0,0.0,81,0.00,,,0.00,meteohub,2013-05-10 04:43:00,
2013-05-10 00:48:00,63.3,57.4,29.89,South,180,0.0,0.0,81,0.00,,,0.00,meteohub,2013-05-10 04:48:00,
2013-05-10 00:53:00,63.3,57.4,29.89,NE,45,0.0,0.0,81,0.00,,,0.00,meteohub,2013-05-10 04:53:00,
2013-05-10 00:59:00,63.3,57.7,29.89,NE,45,0.0,0.0,82,0.00,,,0.00,meteohub,2013-05-10 04:59:00,
2013-05-10 01:04:00,63.3,57.7,29.90,NE,45,0.0,0.0,82,0.00,,,0.00,meteohub,2013-05-10 05:04:00,
2013-05-10 01:09:00,63.3,57.7,29.90,South,180,2.0,0.0,82,0.00,,,0.00,meteohub,2013-05-10 05:09:00,
2013-05-10 01:14:00,63.3,57.7,29.91,NW,315,5.0,0.0,82,0.00,,,0.00,meteohub,2013-05-10 05:14:00,
2013-05-10 01:19:00,64.0,58.1,29.91,SW,225,4.0,5.0,81,0.00,,,0.00,meteohub,2013-05-10 05:19:00,
2013-05-10 01:24:00,64.4,58.1,29.91,SW,225,3.0,5.0,80,0.00,,,0.00,meteohub,2013-05-10 05:24:00,
2013-05-10 01:29:00,64.4,57.7,29.91,SW,225,0.0,5.0,79,0.00,,,0.00,meteohub,2013-05-10 05:29:00,
2013-05-10 01:34:00,64.0,57.7,29.90,SW,225,0.0,5.0,80,0.00,,,0.00,meteohub,2013-05-10 05:34:00,
2013-05-10 01:39:00,63.5,57.6,29.90,SW,225,0.0,5.0,81,0.00,,,0.00,meteohub,2013-05-10 05:39:00,
2013-05-10 01:44:00,63.0,57.4,29.89,NE,45,0.0,4.0,82,0.00,,,0.00,meteohub,2013-05-10 05:44:00,
2013-05-10 01:50:00,62.4,57.6,29.89,NE,45,0.0,0.0,84,0.00,,,0.00,meteohub,2013-05-10 05:50:00,
2013-05-10 01:55:00,62.1,57.6,29.88,NE,45,0.0,0.0,85,0.00,,,0.00,meteohub,2013-05-10 05:55:00,
2013-05-10 02:00:00,61.7,57.2,29.88,NE,45,0.0,0.0,85,0.00,,,0.00,meteohub,2013-05-10 06:00:00,
2013-05-10 02:05:00,61.7,57.2,29.87,NE,45,0.0,0.0,85,0.00,,,0.00,meteohub,2013-05-10 06:05:00,
2013-05-10 02:10:00,61.0,57.0,29.87,NE,45,0.0,0.0,87,0.00,,,0.00,meteohub,2013-05-10 06:10:00,
2013-05-10 02:15:00,60.6,57.4,29.87,NE,45,0.0,0.0,89,0.01,,,0.01,meteohub,2013-05-10 06:15:00,
2013-05-10 02:20:00,60.4,57.6,29.86,NE,45,0.0,0.0,90,0.01,,,0.01,meteohub,2013-05-10 06:20:00,
2013-05-10 02:25:00,60.3,57.6,29.86,NE,45,0.0,0.0,91,0.01,,,0.01,meteohub,2013-05-10 06:25:00,
2013-05-10 02:30:00,60.1,57.7,29.86,NE,45,0.0,0.0,92,0.01,,,0.01,meteohub,2013-05-10 06:30:00,
2013-05-10 02:35:00,60.1,58.1,29.86,NE,45,0.0,0.0,93,0.01,,,0.01,meteohub,2013-05-10 06:35:00,
2013-05-10 02:40:00,60.1,58.1,29.86,East,90,0.0,0.0,93,0.01,,,0.01,meteohub,2013-05-10 06:40:00,
2013-05-10 02:46:00,60.1,58.3,29.85,East,90,0.0,0.0,94,0.01,,,0.01,meteohub,2013-05-10 06:46:00,
2013-05-10 02:51:00,60.1,58.3,29.85,SW,225,0.0,0.0,94,0.01,,,0.01,meteohub,2013-05-10 06:51:00,
2013-05-10 02:56:00,60.1,58.3,29.85,SW,225,0.0,0.0,94,0.01,,,0.01,meteohub,2013-05-10 06:56:00,
2013-05-10 03:01:00,60.1,58.6,29.85,East,90,0.0,0.0,95,0.01,,,0.01,meteohub,2013-05-10 07:01:00,
2013-05-10 03:06:00,60.1,58.6,29.85,East,90,0.0,0.0,95,0.01,,,0.01,meteohub,2013-05-10 07:06:00,
2013-05-10 03:11:00,60.1,58.6,29.84,East,90,0.0,0.0,95,0.01,,,0.01,meteohub,2013-05-10 07:11:00,
2013-05-10 03:16:00,60.1,58.6,29.84,East,90,0.0,0.0,95,0.00,,,0.01,meteohub,2013-05-10 07:16:00,
2013-05-10 03:21:00,60.1,59.0,29.84,East,90,0.0,0.0,96,0.00,,,0.01,meteohub,2013-05-10 07:21:00,
2013-05-10 03:26:00,59.9,58.8,29.83,East,90,0.0,0.0,96,0.00,,,0.01,meteohub,2013-05-10 07:26:00,
2013-05-10 03:31:00,59.9,58.8,29.83,East,90,0.0,0.0,96,0.00,,,0.01,meteohub,2013-05-10 07:31:00,
2013-05-10 03:37:00,59.9,58.8,29.83,East,90,0.0,0.0,96,0.00,,,0.01,meteohub,2013-05-10 07:37:00,
2013-05-10 03:42:00,59.9,58.8,29.83,SW,225,0.0,0.0,96,0.00,,,0.01,meteohub,2013-05-10 07:42:00,
2013-05-10 03:47:00,59.9,58.8,29.83,SW,225,0.0,0.0,96,0.00,,,0.01,meteohub,2013-05-10 07:47:00,
2013-05-10 03:52:00,59.9,59.0,29.82,SE,135,0.0,0.0,97,0.00,,,0.01,meteohub,2013-05-10 07:52:00,
2013-05-10 03:57:00,59.9,59.0,29.82,East,90,0.0,0.0,97,0.00,,,0.01,meteohub,2013-05-10 07:57:00,
2013-05-10 04:02:00,59.9,59.0,29.82,NE,45,0.0,0.0,97,0.00,,,0.01,meteohub,2013-05-10 08:02:00,
2013-05-10 04:07:00,59.9,59.0,29.82,NE,45,0.0,0.0,97,0.00,,,0.01,meteohub,2013-05-10 08:07:00,
2013-05-10 04:12:00,59.7,58.8,29.82,East,90,0.0,0.0,97,0.00,,,0.01,meteohub,2013-05-10 08:12:00,
2013-05-10 04:17:00,59.7,58.8,29.81,East,90,0.0,0.0,97,0.01,,,0.02,meteohub,2013-05-10 08:17:00,
2013-05-10 04:22:00,59.7,58.8,29.81,East,90,0.0,0.0,97,0.01,,,0.02,meteohub,2013-05-10 08:22:00,
2013-05-10 04:27:00,59.7,58.8,29.81,East,90,0.0,0.0,97,0.01,,,0.02,meteohub,2013-05-10 08:27:00,
2013-05-10 04:32:00,59.7,58.8,29.80,East,90,0.0,0.0,97,0.02,,,0.04,meteohub,2013-05-10 08:32:00,
2013-05-10 04:37:00,59.7,58.8,29.80,East,90,0.0,0.0,97,0.02,,,0.04,meteohub,2013-05-10 08:37:00,
2013-05-10 04:42:00,59.5,58.6,29.81,SW,225,0.0,0.0,97,0.02,,,0.04,meteohub,2013-05-10 08:42:00,
2013-05-10 04:47:00,59.5,58.6,29.80,SE,135,0.0,0.0,97,0.02,,,0.04,meteohub,2013-05-10 08:47:00,
2013-05-10 04:52:00,59.5,58.6,29.80,East,90,0.0,0.0,97,0.04,,,0.05,meteohub,2013-05-10 08:52:00,
2013-05-10 04:57:00,59.5,58.6,29.80,East,90,0.0,0.0,97,0.04,,,0.05,meteohub,2013-05-10 08:57:00,
2013-05-10 05:02:00,59.5,58.6,29.79,East,90,0.0,0.0,97,0.04,,,0.05,meteohub,2013-05-10 09:02:00,
2013-05-10 05:07:00,59.5,58.6,29.79,East,90,0.0,0.0,97,0.04,,,0.05,meteohub,2013-05-10 09:07:00,
2013-05-10 05:13:00,59.4,58.8,29.79,NE,45,0.0,0.0,98,0.04,,,0.05,meteohub,2013-05-10 09:13:00,
2013-05-10 05:18:00,59.4,58.8,29.79,East,90,0.0,0.0,98,0.02,,,0.05,meteohub,2013-05-10 09:18:00,
2013-05-10 05:23:00,59.4,58.8,29.79,East,90,0.0,0.0,98,0.04,,,0.06,meteohub,2013-05-10 09:23:00,
2013-05-10 05:28:00,59.4,58.8,29.78,East,90,0.0,0.0,98,0.04,,,0.06,meteohub,2013-05-10 09:28:00,
2013-05-10 05:33:00,59.4,58.8,29.78,NE,45,0.0,0.0,98,0.04,,,0.07,meteohub,2013-05-10 09:33:00,
2013-05-10 05:38:00,59.4,58.8,29.78,East,90,0.0,1.0,98,0.05,,,0.08,meteohub,2013-05-10 09:38:00,
2013-05-10 05:43:00,59.5,59.0,29.78,NE,45,0.0,1.0,98,0.06,,,0.09,meteohub,2013-05-10 09:43:00,
2013-05-10 05:48:00,59.5,59.0,29.78,NE,45,0.0,0.0,98,0.07,,,0.11,meteohub,2013-05-10 09:48:00,
2013-05-10 05:53:00,59.5,59.0,29.77,NE,45,0.0,0.0,98,0.07,,,0.12,meteohub,2013-05-10 09:53:00,
2013-05-10 05:58:00,59.5,59.2,29.77,East,90,0.0,1.0,99,0.08,,,0.13,meteohub,2013-05-10 09:58:00,
2013-05-10 06:04:00,59.5,59.2,29.77,East,90,0.0,1.0,99,0.09,,,0.14,meteohub,2013-05-10 10:04:00,
2013-05-10 06:09:00,59.5,59.2,29.77,NE,45,0.0,1.0,99,0.09,,,0.14,meteohub,2013-05-10 10:09:00,
2013-05-10 06:14:00,59.5,59.2,29.76,NE,45,0.0,0.0,99,0.11,,,0.15,meteohub,2013-05-10 10:14:00,
2013-05-10 06:19:00,59.4,59.0,29.76,East,90,0.0,0.0,99,0.12,,,0.17,meteohub,2013-05-10 10:19:00,
2013-05-10 06:24:00,59.4,59.0,29.76,East,90,2.0,0.0,99,0.12,,,0.18,meteohub,2013-05-10 10:24:00,
2013-05-10 06:29:00,59.4,59.0,29.76,East,90,0.0,0.0,99,0.12,,,0.18,meteohub,2013-05-10 10:29:00,
2013-05-10 06:34:00,59.4,59.0,29.76,SW,225,0.0,2.0,99,0.12,,,0.19,meteohub,2013-05-10 10:34:00,
2013-05-10 06:39:00,59.4,59.0,29.76,East,90,0.0,2.0,99,0.11,,,0.19,meteohub,2013-05-10 10:39:00,
2013-05-10 06:45:00,59.4,59.0,29.75,South,180,0.0,2.0,99,0.09,,,0.19,meteohub,2013-05-10 10:45:00,
2013-05-10 06:50:00,59.4,59.0,29.75,SW,225,0.0,0.0,99,0.08,,,0.19,meteohub,2013-05-10 10:50:00,
2013-05-10 06:55:00,59.4,59.0,29.75,South,180,0.0,0.0,99,0.07,,,0.19,meteohub,2013-05-10 10:55:00,
2013-05-10 07:00:00,59.4,59.0,29.75,South,180,2.0,2.0,99,0.05,,,0.19,meteohub,2013-05-10 11:00:00,
2013-05-10 07:05:00,59.5,59.2,29.75,SW,225,2.0,2.0,99,0.05,,,0.19,meteohub,2013-05-10 11:05:00,
2013-05-10 07:10:00,59.5,59.2,29.75,NW,315,0.0,4.0,99,0.02,,,0.19,meteohub,2013-05-10 11:10:00,
2013-05-10 07:15:00,59.7,59.4,29.75,SW,225,0.0,4.0,99,0.02,,,0.19,meteohub,2013-05-10 11:15:00,
2013-05-10 07:20:00,59.7,59.4,29.75,SW,225,0.0,4.0,99,0.01,,,0.19,meteohub,2013-05-10 11:20:00,
2013-05-10 07:25:00,59.9,59.5,29.75,South,180,0.0,0.0,99,0.01,,,0.19,meteohub,2013-05-10 11:25:00,
2013-05-10 07:30:00,59.9,59.5,29.75,SW,225,0.0,0.0,99,0.00,,,0.19,meteohub,2013-05-10 11:30:00,
2013-05-10 07:36:00,60.1,59.7,29.75,SE,135,2.0,0.0,99,0.00,,,0.19,meteohub,2013-05-10 11:36:00,
2013-05-10 07:41:00,60.1,59.7,29.75,South,180,2.0,2.0,99,0.00,,,0.19,meteohub,2013-05-10 11:41:00,
2013-05-10 07:46:00,60.3,59.9,29.75,South,180,0.0,2.0,99,0.00,,,0.19,meteohub,2013-05-10 11:46:00,
2013-05-10 07:51:00,60.3,59.9,29.75,South,180,0.0,2.0,99,0.00,,,0.19,meteohub,2013-05-10 11:51:00,
2013-05-10 07:56:00,60.4,60.1,29.75,South,180,2.0,3.0,99,0.00,,,0.19,meteohub,2013-05-10 11:56:00,
2013-05-10 08:01:00,60.6,60.3,29.75,SW,225,2.0,3.0,99,0.00,,,0.19,meteohub,2013-05-10 12:01:00,
2013-05-10 08:06:00,60.6,60.3,29.75,SW,225,2.0,3.0,99,0.00,,,0.19,meteohub,2013-05-10 12:06:00,
2013-05-10 08:11:00,60.8,60.3,29.75,SW,225,2.0,2.0,98,0.00,,,0.19,meteohub,2013-05-10 12:11:00,
2013-05-10 08:16:00,60.8,60.3,29.75,SW,225,0.0,3.0,98,0.00,,,0.19,meteohub,2013-05-10 12:16:00,
2013-05-10 08:21:00,61.0,60.4,29.76,SW,225,1.0,3.0,98,0.00,,,0.19,meteohub,2013-05-10 12:21:00,
2013-05-10 08:27:00,61.0,60.4,29.75,South,180,0.0,3.0,98,0.00,,,0.19,meteohub,2013-05-10 12:27:00,
2013-05-10 08:32:00,61.2,60.6,29.75,SW,225,0.0,2.0,98,0.00,,,0.19,meteohub,2013-05-10 12:32:00,
2013-05-10 08:37:00,61.2,60.6,29.75,SW,225,1.0,2.0,98,0.00,,,0.19,meteohub,2013-05-10 12:37:00,
2013-05-10 08:42:00,61.3,60.8,29.75,SW,225,1.0,2.0,98,0.00,,,0.19,meteohub,2013-05-10 12:42:00,
2013-05-10 08:47:00,61.5,61.0,29.75,South,180,2.0,3.0,98,0.00,,,0.19,meteohub,2013-05-10 12:47:00,
2013-05-10 08:52:00,61.5,61.0,29.75,West,270,3.0,3.0,98,0.01,,,0.20,meteohub,2013-05-10 12:52:00,
2013-05-10 08:57:00,61.7,61.2,29.75,SW,225,2.0,3.0,98,0.01,,,0.20,meteohub,2013-05-10 12:57:00,
2013-05-10 09:02:00,61.7,61.2,29.75,SW,225,2.0,3.0,98,0.01,,,0.20,meteohub,2013-05-10 13:02:00,
2013-05-10 09:07:00,61.9,61.3,29.75,South,180,2.0,3.0,98,0.01,,,0.20,meteohub,2013-05-10 13:07:00,
2013-05-10 09:12:00,62.1,61.5,29.75,SW,225,1.0,3.0,98,0.01,,,0.20,meteohub,2013-05-10 13:12:00,
2013-05-10 09:17:00,62.2,61.7,29.75,SW,225,3.0,3.0,98,0.01,,,0.20,meteohub,2013-05-10 13:17:00,
2013-05-10 09:22:00,62.6,61.7,29.75,West,270,2.0,4.0,97,0.01,,,0.20,meteohub,2013-05-10 13:22:00,
2013-05-10 09:27:00,62.8,61.9,29.75,South,180,2.0,4.0,97,0.01,,,0.20,meteohub,2013-05-10 13:27:00,
2013-05-10 09:32:00,63.0,62.1,29.75,SW,225,2.0,4.0,97,0.01,,,0.20,meteohub,2013-05-10 13:32:00,
2013-05-10 09:37:00,63.0,62.1,29.75,West,270,3.0,4.0,97,0.01,,,0.20,meteohub,2013-05-10 13:37:00,
2013-05-10 09:42:00,63.0,62.1,29.75,SW,225,2.0,3.0,97,0.01,,,0.20,meteohub,2013-05-10 13:42:00,
2013-05-10 09:47:00,63.1,62.2,29.75,West,270,3.0,4.0,97,0.01,,,0.20,meteohub,2013-05-10 13:47:00,
2013-05-10 09:52:00,63.3,62.4,29.75,SW,225,2.0,4.0,97,0.00,,,0.20,meteohub,2013-05-10 13:52:00,
2013-05-10 09:57:00,63.3,62.4,29.75,SW,225,0.0,4.0,97,0.00,,,0.20,meteohub,2013-05-10 13:57:00,
2013-05-10 10:02:00,63.5,62.6,29.75,West,270,3.0,4.0,97,0.00,,,0.20,meteohub,2013-05-10 14:02:00,
2013-05-10 10:07:00,63.7,62.8,29.75,West,270,1.0,4.0,97,0.00,,,0.20,meteohub,2013-05-10 14:07:00,
2013-05-10 10:12:00,63.9,63.0,29.75,South,180,3.0,3.0,97,0.00,,,0.20,meteohub,2013-05-10 14:12:00,
2013-05-10 10:17:00,64.0,63.0,29.75,SW,225,2.0,3.0,96,0.00,,,0.20,meteohub,2013-05-10 14:17:00,
2013-05-10 10:22:00,64.0,63.0,29.75,SW,225,2.0,3.0,96,0.00,,,0.20,meteohub,2013-05-10 14:22:00,
2013-05-10 10:27:00,64.2,62.8,29.75,South,180,0.0,4.0,95,0.00,,,0.20,meteohub,2013-05-10 14:27:00,
2013-05-10 10:32:00,64.2,62.4,29.75,South,180,2.0,4.0,94,0.00,,,0.20,meteohub,2013-05-10 14:32:00,
2013-05-10 10:37:00,64.4,63.0,29.74,SW,225,1.0,4.0,95,0.00,,,0.20,meteohub,2013-05-10 14:37:00,
2013-05-10 10:42:00,64.6,63.1,29.74,East,90,3.0,4.0,95,0.00,,,0.20,meteohub,2013-05-10 14:42:00,
2013-05-10 10:47:00,64.8,63.3,29.75,West,270,1.0,4.0,95,0.00,,,0.20,meteohub,2013-05-10 14:47:00,
2013-05-10 10:52:00,65.7,63.9,29.74,West,270,2.0,4.0,94,0.00,,,0.20,meteohub,2013-05-10 14:52:00,
2013-05-10 10:57:00,66.0,63.7,29.74,SW,225,2.0,4.0,92,0.00,,,0.20,meteohub,2013-05-10 14:57:00,
2013-05-10 11:02:00,66.0,63.0,29.74,West,270,4.0,5.0,90,0.00,,,0.20,meteohub,2013-05-10 15:02:00,
2013-05-10 11:07:00,66.4,62.8,29.74,NW,315,2.0,5.0,88,0.00,,,0.20,meteohub,2013-05-10 15:07:00,
2013-05-10 11:12:00,66.6,62.6,29.74,West,270,6.0,6.0,87,0.00,,,0.20,meteohub,2013-05-10 15:12:00,
2013-05-10 11:17:00,65.8,61.9,29.74,NW,315,3.0,6.0,87,0.00,,,0.20,meteohub,2013-05-10 15:17:00,
2013-05-10 11:22:00,64.6,60.3,29.75,NW,315,3.0,6.0,86,0.00,,,0.20,meteohub,2013-05-10 15:22:00,
2013-05-10 11:27:00,63.3,58.8,29.75,North,0,3.0,6.0,85,0.00,,,0.20,meteohub,2013-05-10 15:27:00,
2013-05-10 11:32:00,32.0,10.9,29.75,NNW,338,0.0,4.0,41,0.00,,,0.20,meteohub,2013-05-10 15:32:00,
2013-05-10 11:37:00,61.5,57.9,29.75,North,0,4.0,6.0,88,0.00,,,0.20,meteohub,2013-05-10 15:37:00,
2013-05-10 11:42:00,60.8,57.2,29.76,NW,315,4.0,6.0,88,0.00,,,0.20,meteohub,2013-05-10 15:42:00,
2013-05-10 11:47:00,60.1,57.2,29.76,NW,315,2.0,6.0,90,0.00,,,0.20,meteohub,2013-05-10 15:47:00,
2013-05-10 11:52:00,59.5,56.7,29.76,North,0,4.0,5.0,90,0.00,,,0.20,meteohub,2013-05-10 15:52:00,
2013-05-10 11:57:00,59.4,56.5,29.76,North,0,5.0,5.0,90,0.00,,,0.20,meteohub,2013-05-10 15:57:00,
2013-05-10 12:02:00,59.2,56.5,29.76,NE,45,4.0,5.0,91,0.00,,,0.20,meteohub,2013-05-10 16:02:00,
2013-05-10 12:07:00,58.6,55.9,29.77,North,0,2.0,5.0,91,0.00,,,0.20,meteohub,2013-05-10 16:07:00,
2013-05-10 12:12:00,58.3,55.6,29.76,NW,315,2.0,5.0,91,0.00,,,0.20,meteohub,2013-05-10 16:12:00,
2013-05-10 12:17:00,58.3,55.9,29.77,NW,315,3.0,4.0,92,0.00,,,0.20,meteohub,2013-05-10 16:17:00,
2013-05-10 12:22:00,57.9,55.6,29.77,NW,315,4.0,4.0,92,0.00,,,0.20,meteohub,2013-05-10 16:22:00,
2013-05-10 12:27:00,57.0,54.5,29.78,NE,45,4.0,4.0,91,0.00,,,0.20,meteohub,2013-05-10 16:27:00,
2013-05-10 12:32:00,56.1,53.6,29.78,North,0,3.0,6.0,91,0.00,,,0.20,meteohub,2013-05-10 16:32:00,
2013-05-10 12:37:00,55.6,53.1,29.78,North,0,3.0,6.0,91,0.00,,,0.20,meteohub,2013-05-10 16:37:00,
2013-05-10 12:42:00,55.6,53.2,29.78,North,0,2.0,6.0,92,0.00,,,0.20,meteohub,2013-05-10 16:42:00,
2013-05-10 12:47:00,55.4,53.4,29.78,North,0,4.0,5.0,93,0.00,,,0.20,meteohub,2013-05-10 16:47:00,
2013-05-10 12:53:00,54.9,52.5,29.78,NW,315,3.0,6.0,92,0.00,,,0.20,meteohub,2013-05-10 16:53:00,
2013-05-10 12:58:00,54.9,52.5,29.78,NE,45,4.0,6.0,92,0.00,,,0.20,meteohub,2013-05-10 16:58:00,
2013-05-10 13:03:00,54.7,52.3,29.78,NW,315,2.0,6.0,92,0.00,,,0.20,meteohub,2013-05-10 17:03:00,
2013-05-10 13:08:00,54.5,52.2,29.78,North,0,4.0,4.0,92,0.00,,,0.20,meteohub,2013-05-10 17:08:00,
2013-05-10 13:13:00,54.5,52.2,29.78,North,0,3.0,4.0,92,0.00,,,0.20,meteohub,2013-05-10 17:13:00,
2013-05-10 13:18:00,54.3,52.0,29.78,West,270,2.0,4.0,92,0.00,,,0.20,meteohub,2013-05-10 17:18:00,
2013-05-10 13:23:00,54.5,52.2,29.78,NE,45,3.0,4.0,92,0.00,,,0.20,meteohub,2013-05-10 17:23:00,
2013-05-10 13:28:00,54.9,52.5,29.78,NE,45,3.0,5.0,92,0.00,,,0.20,meteohub,2013-05-10 17:28:00,
2013-05-10 13:33:00,55.9,53.4,29.78,NW,315,2.0,5.0,91,0.00,,,0.20,meteohub,2013-05-10 17:33:00,
2013-05-10 13:38:00,57.2,54.0,29.78,North,0,4.0,4.0,89,0.00,,,0.20,meteohub,2013-05-10 17:38:00,
2013-05-10 13:44:00,57.7,54.0,29.77,North,0,4.0,5.0,87,0.00,,,0.20,meteohub,2013-05-10 17:44:00,
2013-05-10 13:49:00,58.3,54.1,29.77,NW,315,4.0,5.0,86,0.00,,,0.20,meteohub,2013-05-10 17:49:00,
2013-05-10 13:54:00,58.8,54.0,29.77,NE,45,5.0,5.0,84,0.00,,,0.20,meteohub,2013-05-10 17:54:00,
2013-05-10 13:59:00,58.1,52.9,29.78,NE,45,4.0,6.0,83,0.00,,,0.20,meteohub,2013-05-10 17:59:00,
2013-05-10 14:04:00,57.7,52.9,29.78,West,270,3.0,8.0,84,0.00,,,0.20,meteohub,2013-05-10 18:04:00,
2013-05-10 14:09:00,57.6,52.7,29.79,NW,315,4.0,8.0,84,0.00,,,0.20,meteohub,2013-05-10 18:09:00,
2013-05-10 14:14:00,57.0,52.5,29.79,North,0,4.0,8.0,85,0.00,,,0.20,meteohub,2013-05-10 18:14:00,
2013-05-10 14:19:00,56.3,51.8,29.79,NE,45,3.0,4.0,85,0.00,,,0.20,meteohub,2013-05-10 18:19:00,
2013-05-10 14:24:00,55.9,51.4,29.78,NW,315,3.0,4.0,85,0.00,,,0.20,meteohub,2013-05-10 18:24:00,
2013-05-10 14:29:00,56.1,52.0,29.79,NW,315,4.0,6.0,86,0.00,,,0.20,meteohub,2013-05-10 18:29:00,
2013-05-10 14:35:00,56.1,52.0,29.79,NW,315,4.0,6.0,86,0.00,,,0.20,meteohub,2013-05-10 18:35:00,
2013-05-10 14:40:00,56.8,52.3,29.79,North,0,7.0,7.0,85,0.00,,,0.20,meteohub,2013-05-10 18:40:00,
2013-05-10 14:45:00,55.6,50.5,29.79,North,0,5.0,7.0,83,0.00,,,0.20,meteohub,2013-05-10 18:45:00,
2013-05-10 14:50:00,54.9,49.8,29.79,NW,315,3.0,7.0,83,0.00,,,0.20,meteohub,2013-05-10 18:50:00,
2013-05-10 14:55:00,54.1,49.1,29.79,West,270,3.0,8.0,83,0.00,,,0.20,meteohub,2013-05-10 18:55:00,
2013-05-10 15:00:00,53.6,48.9,29.79,North,0,4.0,6.0,84,0.00,,,0.20,meteohub,2013-05-10 19:00:00,
2013-05-10 15:05:00,53.6,48.9,29.79,North,0,3.0,5.0,84,0.00,,,0.20,meteohub,2013-05-10 19:05:00,
2013-05-10 15:10:00,53.6,49.3,29.80,North,0,3.0,5.0,85,0.00,,,0.20,meteohub,2013-05-10 19:10:00,
2013-05-10 15:15:00,53.4,49.3,29.80,North,0,4.0,5.0,86,0.00,,,0.20,meteohub,2013-05-10 19:15:00,
2013-05-10 15:20:00,52.9,48.6,29.80,NE,45,6.0,6.0,85,0.00,,,0.20,meteohub,2013-05-10 19:20:00,
2013-05-10 15:26:00,52.3,48.2,29.80,North,0,7.0,7.0,86,0.00,,,0.20,meteohub,2013-05-10 19:26:00,
2013-05-10 15:31:00,52.2,48.0,29.79,NE,45,4.0,7.0,86,0.00,,,0.20,meteohub,2013-05-10 19:31:00,
2013-05-10 15:36:00,52.2,48.0,29.79,NE,45,4.0,7.0,86,0.00,,,0.20,meteohub,2013-05-10 19:36:00,
2013-05-10 15:41:00,52.0,47.8,29.79,North,0,5.0,7.0,86,0.00,,,0.20,meteohub,2013-05-10 19:41:00,
2013-05-10 15:46:00,51.8,47.7,29.79,NE,45,4.0,7.0,86,0.00,,,0.20,meteohub,2013-05-10 19:46:00,
2013-05-10 15:51:00,51.8,47.7,29.79,North,0,4.0,7.0,86,0.00,,,0.20,meteohub,2013-05-10 19:51:00,
2013-05-10 15:56:00,51.6,48.2,29.80,NE,45,3.0,6.0,88,0.00,,,0.20,meteohub,2013-05-10 19:56:00,
2013-05-10 16:01:00,51.1,47.7,29.80,NW,315,4.0,5.0,88,0.00,,,0.20,meteohub,2013-05-10 20:01:00,
2013-05-10 16:06:00,50.9,47.5,29.79,NE,45,3.0,5.0,88,0.00,,,0.20,meteohub,2013-05-10 20:06:00,
2013-05-10 16:12:00,51.1,47.7,29.79,NW,315,4.0,7.0,88,0.00,,,0.20,meteohub,2013-05-10 20:12:00,
2013-05-10 16:17:00,51.1,47.7,29.79,North,0,4.0,7.0,88,0.00,,,0.20,meteohub,2013-05-10 20:17:00,
2013-05-10 16:22:00,51.1,48.0,29.80,NE,45,4.0,7.0,89,0.00,,,0.20,meteohub,2013-05-10 20:22:00,
2013-05-10 16:27:00,50.9,47.5,29.79,NNW,338,2.0,7.0,88,0.00,,,0.20,meteohub,2013-05-10 20:27:00,
2013-05-10 16:32:00,50.9,47.8,29.79,North,0,3.0,7.0,89,0.00,,,0.20,meteohub,2013-05-10 20:32:00,
2013-05-10 16:37:00,51.1,48.0,29.79,North,0,3.0,5.0,89,0.00,,,0.20,meteohub,2013-05-10 20:37:00,
2013-05-10 16:42:00,51.1,48.0,29.79,East,90,4.0,8.0,89,0.00,,,0.20,meteohub,2013-05-10 20:42:00,
2013-05-10 16:47:00,51.1,48.0,29.79,North,0,5.0,8.0,89,0.00,,,0.20,meteohub,2013-05-10 20:47:00,
2013-05-10 16:52:00,50.7,47.3,29.79,NW,315,4.0,8.0,88,0.00,,,0.20,meteohub,2013-05-10 20:52:00,
2013-05-10 16:57:00,50.5,47.1,29.78,NE,45,4.0,6.0,88,0.00,,,0.20,meteohub,2013-05-10 20:57:00,
2013-05-10 17:02:00,50.4,46.6,29.79,NW,315,5.0,6.0,87,0.00,,,0.20,meteohub,2013-05-10 21:02:00,
2013-05-10 17:07:00,50.2,46.4,29.79,NW,315,3.0,8.0,87,0.00,,,0.20,meteohub,2013-05-10 21:07:00,
2013-05-10 17:12:00,50.0,46.2,29.79,North,0,6.0,8.0,87,0.00,,,0.20,meteohub,2013-05-10 21:12:00,
2013-05-10 17:17:00,49.6,46.2,29.79,North,0,4.0,6.0,88,0.00,,,0.20,meteohub,2013-05-10 21:17:00,
2013-05-10 17:22:00,49.3,45.9,29.79,North,0,4.0,6.0,88,0.00,,,0.20,meteohub,2013-05-10 21:22:00,
2013-05-10 17:27:00,48.6,45.1,29.79,North,0,8.0,8.0,88,0.00,,,0.20,meteohub,2013-05-10 21:27:00,
2013-05-10 17:32:00,48.2,44.6,29.79,North,0,4.0,8.0,87,0.00,,,0.20,meteohub,2013-05-10 21:32:00,
2013-05-10 17:37:00,48.0,44.6,29.80,NW,315,4.0,8.0,88,0.00,,,0.20,meteohub,2013-05-10 21:37:00,
2013-05-10 17:42:00,47.8,44.8,29.80,NE,45,4.0,8.0,89,0.00,,,0.20,meteohub,2013-05-10 21:42:00,
2013-05-10 17:47:00,47.8,44.8,29.80,NE,45,5.0,6.0,89,0.00,,,0.20,meteohub,2013-05-10 21:47:00,
2013-05-10 17:52:00,47.8,44.8,29.80,North,0,4.0,6.0,89,0.00,,,0.20,meteohub,2013-05-10 21:52:00,
2013-05-10 17:57:00,47.5,44.4,29.79,NE,45,4.0,6.0,89,0.00,,,0.20,meteohub,2013-05-10 21:57:00,
2013-05-10 17:58:00,47.5,44.4,29.79,North,0,4.0,6.0,89,0.00,,,0.20,meteohub,2013-05-10 21:58:00,
2013-05-10 18:03:00,47.3,44.2,29.80,NE,45,5.0,8.0,89,0.00,,,0.20,meteohub,2013-05-10 22:03:00,
2013-05-10 18:04:00,47.3,44.2,29.80,NE,45,5.0,8.0,89,0.00,,,0.20,meteohub,2013-05-10 22:04:00,
2013-05-10 18:09:00,47.3,44.6,29.80,North,0,4.0,8.0,90,0.00,,,0.20,meteohub,2013-05-10 22:09:00,
2013-05-10 18:14:00,47.1,44.4,29.80,NE,45,3.0,8.0,90,0.00,,,0.20,meteohub,2013-05-10 22:14:00,
2013-05-10 18:19:00,47.3,44.6,29.79,NE,45,5.0,8.0,90,0.00,,,0.20,meteohub,2013-05-10 22:19:00,
2013-05-10 18:24:00,47.3,44.6,29.80,NE,45,4.0,8.0,90,0.00,,,0.20,meteohub,2013-05-10 22:24:00,
2013-05-10 18:29:00,47.1,44.4,29.80,North,0,3.0,7.0,90,0.00,,,0.20,meteohub,2013-05-10 22:29:00,
2013-05-10 18:34:00,46.9,44.2,29.80,North,0,4.0,7.0,90,0.00,,,0.20,meteohub,2013-05-10 22:34:00,
2013-05-10 18:39:00,46.9,44.2,29.80,North,0,4.0,6.0,90,0.00,,,0.20,meteohub,2013-05-10 22:39:00,
2013-05-10 18:44:00,46.6,43.9,29.80,NE,45,2.0,6.0,90,0.00,,,0.20,meteohub,2013-05-10 22:44:00,
2013-05-10 18:49:00,46.4,43.7,29.80,NE,45,2.0,5.0,90,0.00,,,0.20,meteohub,2013-05-10 22:49:00,
2013-05-10 18:55:00,46.4,43.7,29.80,North,0,3.0,5.0,90,0.00,,,0.20,meteohub,2013-05-10 22:55:00,
2013-05-10 19:00:00,46.2,43.7,29.80,North,0,2.0,4.0,91,0.00,,,0.20,meteohub,2013-05-10 23:00:00,
2013-05-10 19:05:00,46.2,44.1,29.80,NE,45,3.0,4.0,92,0.00,,,0.20,meteohub,2013-05-10 23:05:00,
2013-05-10 19:10:00,46.0,43.9,29.80,NE,45,4.0,4.0,92,0.00,,,0.20,meteohub,2013-05-10 23:10:00,
2013-05-10 19:15:00,45.9,43.7,29.80,North,0,4.0,4.0,92,0.00,,,0.20,meteohub,2013-05-10 23:15:00,
2013-05-10 19:20:00,45.7,43.5,29.80,North,0,4.0,6.0,92,0.00,,,0.20,meteohub,2013-05-10 23:20:00,
2013-05-10 19:25:00,45.5,43.0,29.81,North,0,5.0,6.0,91,0.00,,,0.20,meteohub,2013-05-10 23:25:00,
2013-05-10 19:30:00,45.3,42.8,29.81,North,0,8.0,8.0,91,0.00,,,0.20,meteohub,2013-05-10 23:30:00,
2013-05-10 19:35:00,45.3,42.8,29.81,North,0,4.0,8.0,91,0.00,,,0.20,meteohub,2013-05-10 23:35:00,
2013-05-10 19:41:00,45.1,42.6,29.81,North,0,4.0,8.0,91,0.00,,,0.20,meteohub,2013-05-10 23:41:00,
2013-05-10 19:46:00,45.1,42.6,29.81,NW,315,3.0,8.0,91,0.00,,,0.20,meteohub,2013-05-10 23:46:00,
2013-05-10 19:51:00,45.0,42.4,29.81,North,0,6.0,6.0,91,0.00,,,0.20,meteohub,2013-05-10 23:51:00,
2013-05-10 19:56:00,44.6,42.1,29.82,NW,315,3.0,6.0,91,0.00,,,0.20,meteohub,2013-05-10 23:56:00,
2013-05-10 20:01:00,44.6,42.1,29.82,North,0,3.0,6.0,91,0.00,,,0.20,meteohub,2013-05-11 00:01:00,
2013-05-10 20:06:00,44.4,42.3,29.82,NE,45,3.0,6.0,92,0.00,,,0.20,meteohub,2013-05-11 00:06:00,
2013-05-10 20:11:00,44.4,42.3,29.82,North,0,4.0,6.0,92,0.00,,,0.20,meteohub,2013-05-11 00:11:00,
2013-05-10 20:16:00,44.2,42.1,29.82,North,0,3.0,6.0,92,0.00,,,0.20,meteohub,2013-05-11 00:16:00,
2013-05-10 20:21:00,44.2,42.1,29.82,North,0,3.0,5.0,92,0.00,,,0.20,meteohub,2013-05-11 00:21:00,
2013-05-10 20:26:00,44.1,41.9,29.82,North,0,4.0,5.0,92,0.00,,,0.20,meteohub,2013-05-11 00:26:00,
2013-05-10 20:32:00,43.9,41.7,29.83,North,0,5.0,5.0,92,0.00,,,0.20,meteohub,2013-05-11 00:32:00,
2013-05-10 20:37:00,43.7,41.7,29.83,NW,315,4.0,6.0,93,0.00,,,0.20,meteohub,2013-05-11 00:37:00,
2013-05-10 20:42:00,43.5,41.7,29.83,NW,315,4.0,6.0,93,0.00,,,0.20,meteohub,2013-05-11 00:42:00,
2013-05-10 20:47:00,43.3,41.5,29.83,NW,315,3.0,6.0,93,0.00,,,0.20,meteohub,2013-05-11 00:47:00,
2013-05-10 20:52:00,43.3,41.7,29.83,West,270,4.0,5.0,94,0.00,,,0.20,meteohub,2013-05-11 00:52:00,
2013-05-10 20:57:00,43.3,41.7,29.83,NE,45,5.0,5.0,94,0.00,,,0.20,meteohub,2013-05-11 00:57:00,
2013-05-10 21:02:00,43.2,41.5,29.83,NW,315,3.0,7.0,94,0.00,,,0.20,meteohub,2013-05-11 01:02:00,
2013-05-10 21:07:00,43.2,41.5,29.83,North,0,4.0,7.0,94,0.00,,,0.20,meteohub,2013-05-11 01:07:00,
2013-05-10 21:12:00,43.0,41.4,29.83,North,0,4.0,6.0,94,0.00,,,0.20,meteohub,2013-05-11 01:12:00,
2013-05-10 21:17:00,43.0,41.4,29.83,NW,315,4.0,7.0,94,0.00,,,0.20,meteohub,2013-05-11 01:17:00,
2013-05-10 21:22:00,43.0,41.7,29.83,North,0,4.0,7.0,95,0.00,,,0.20,meteohub,2013-05-11 01:22:00,
2013-05-10 21:27:00,43.0,41.7,29.83,NE,45,4.0,7.0,95,0.00,,,0.20,meteohub,2013-05-11 01:27:00,
2013-05-10 21:32:00,43.0,41.7,29.83,North,0,4.0,6.0,95,0.00,,,0.20,meteohub,2013-05-11 01:32:00,
2013-05-10 21:37:00,43.0,41.7,29.83,North,0,2.0,6.0,95,0.00,,,0.20,meteohub,2013-05-11 01:37:00,
2013-05-10 21:42:00,43.2,41.9,29.84,North,0,10.0,10.0,95,0.00,,,0.20,meteohub,2013-05-11 01:42:00,
2013-05-10 21:47:00,43.0,41.7,29.85,NE,45,4.0,10.0,95,0.00,,,0.20,meteohub,2013-05-11 01:47:00,
2013-05-10 21:52:00,43.0,41.7,29.85,North,0,4.0,10.0,95,0.00,,,0.20,meteohub,2013-05-11 01:52:00,
2013-05-10 21:57:00,42.8,41.5,29.85,North,0,4.0,10.0,95,0.00,,,0.20,meteohub,2013-05-11 01:57:00,
2013-05-10 22:02:00,42.8,41.5,29.86,North,0,4.0,8.0,95,0.00,,,0.20,meteohub,2013-05-11 02:02:00,
2013-05-10 22:07:00,42.8,41.5,29.85,North,0,5.0,8.0,95,0.00,,,0.20,meteohub,2013-05-11 02:07:00,
2013-05-10 22:12:00,42.8,41.5,29.85,North,0,5.0,6.0,95,0.00,,,0.20,meteohub,2013-05-11 02:12:00,
2013-05-10 22:17:00,42.8,41.5,29.86,NE,45,4.0,7.0,95,0.00,,,0.20,meteohub,2013-05-11 02:17:00,
2013-05-10 22:22:00,42.8,41.7,29.85,NE,45,5.0,7.0,96,0.00,,,0.20,meteohub,2013-05-11 02:22:00,
2013-05-10 22:27:00,42.8,41.7,29.85,NE,45,5.0,7.0,96,0.00,,,0.20,meteohub,2013-05-11 02:27:00,
2013-05-10 22:32:00,42.8,41.7,29.85,North,0,2.0,6.0,96,0.00,,,0.20,meteohub,2013-05-11 02:32:00,
2013-05-10 22:37:00,42.8,41.7,29.86,North,0,4.0,6.0,96,0.00,,,0.20,meteohub,2013-05-11 02:37:00,
2013-05-10 22:42:00,42.8,41.7,29.86,NE,45,4.0,5.0,96,0.00,,,0.20,meteohub,2013-05-11 02:42:00,
2013-05-10 22:47:00,42.8,41.7,29.85,NW,315,4.0,4.0,96,0.00,,,0.20,meteohub,2013-05-11 02:47:00,
2013-05-10 22:52:00,42.6,41.9,29.85,NE,45,2.0,5.0,97,0.00,,,0.20,meteohub,2013-05-11 02:52:00,
2013-05-10 22:57:00,42.4,41.9,29.85,North,0,4.0,6.0,98,0.00,,,0.20,meteohub,2013-05-11 02:57:00,
2013-05-10 23:02:00,42.4,41.9,29.85,NNE,23,5.0,6.0,98,0.00,,,0.20,meteohub,2013-05-11 03:02:00,
2013-05-10 23:07:00,42.4,42.3,29.86,North,0,4.0,5.0,99,0.00,,,0.20,meteohub,2013-05-11 03:07:00,
2013-05-10 23:12:00,42.4,42.3,29.85,NW,315,5.0,6.0,99,0.00,,,0.20,meteohub,2013-05-11 03:12:00,
2013-05-10 23:17:00,42.3,42.1,29.85,North,0,5.0,7.0,99,0.00,,,0.20,meteohub,2013-05-11 03:17:00,
2013-05-10 23:22:00,42.3,42.1,29.85,North,0,5.0,7.0,99,0.00,,,0.20,meteohub,2013-05-11 03:22:00,
2013-05-10 23:27:00,42.4,42.3,29.85,North,0,3.0,7.0,99,0.00,,,0.20,meteohub,2013-05-11 03:27:00,
2013-05-10 23:32:00,42.3,42.1,29.85,NE,45,3.0,5.0,99,0.00,,,0.20,meteohub,2013-05-11 03:32:00,
2013-05-10 23:37:00,42.4,42.3,29.85,North,0,2.0,5.0,99,0.00,,,0.20,meteohub,2013-05-11 03:37:00,
2013-05-10 23:42:00,42.3,42.1,29.85,North,0,2.0,3.0,99,0.00,,,0.20,meteohub,2013-05-11 03:42:00,
2013-05-10 23:47:00,42.3,42.1,29.85,NE,45,2.0,3.0,99,0.00,,,0.20,meteohub,2013-05-11 03:47:00,
2013-05-10 23:52:00,42.3,42.1,29.85,North,0,4.0,4.0,99,0.00,,,0.20,meteohub,2013-05-11 03:52:00,
2013-05-10 23:57:00,42.3,42.1,29.85,North,0,2.0,4.0,99,0.00,,,0.20,meteohub,2013-05-11 03:57:00,